TimeCST,TemperatureF,Dew PointF,Humidity,Sea Level PressureIn,VisibilityMPH,Wind Direction,Wind SpeedMPH,Gust SpeedMPH,PrecipitationIn,Events,Conditions,WindDirDegrees,DateUTC
12:15 AM,32.7,25.9,76,30.30,10.0,Calm,Calm,-,N/A,,Clear,0,2013-11-19 06:15:00
12:35 AM,30.9,25.3,80,30.30,10.0,North,3.5,-,N/A,,Clear,350,2013-11-19 06:35:00
12:55 AM,30.4,24.8,80,30.30,10.0,North,6.9,-,N/A,,Clear,360,2013-11-19 06:55:00
1:15 AM,30.4,25.0,80,30.30,10.0,North,6.9,-,N/A,,Clear,360,2013-11-19 07:15:00
1:35 AM,30.4,25.0,80,30.30,10.0,North,6.9,-,N/A,,Clear,360,2013-11-19 07:35:00
1:55 AM,30.4,25.3,82,30.30,10.0,North,6.9,-,N/A,,Clear,10,2013-11-19 07:55:00
2:15 AM,31.3,25.5,79,30.31,10.0,North,6.9,-,N/A,,Clear,10,2013-11-19 08:15:00
2:35 AM,32.0,26.2,79,30.31,10.0,North,8.1,-,N/A,,Clear,10,2013-11-19 08:35:00
2:55 AM,31.8,26.4,80,30.31,10.0,North,8.1,-,N/A,,Clear,10,2013-11-19 08:55:00
3:15 AM,31.5,26.6,82,30.31,10.0,NNE,8.1,-,N/A,,Clear,20,2013-11-19 09:15:00
3:35 AM,30.9,26.4,83,30.31,10.0,NNE,8.1,-,N/A,,Clear,30,2013-11-19 09:35:00
3:55 AM,32.0,27.0,82,30.31,10.0,NE,8.1,-,N/A,,Clear,40,2013-11-19 09:55:00
4:15 AM,32.4,27.1,81,30.31,10.0,NE,6.9,-,N/A,,Clear,40,2013-11-19 10:15:00
4:35 AM,32.7,27.1,80,30.32,10.0,NE,9.2,-,N/A,,Clear,40,2013-11-19 10:35:00
4:55 AM,32.4,27.0,80,30.32,10.0,NE,6.9,-,N/A,,Clear,40,2013-11-19 10:55:00
5:15 AM,32.0,26.6,80,30.32,10.0,NE,5.8,-,N/A,,Clear,50,2013-11-19 11:15:00
5:35 AM,31.3,26.2,82,30.33,10.0,ENE,4.6,-,N/A,,Clear,60,2013-11-19 11:35:00
5:55 AM,31.1,26.4,83,30.33,10.0,ENE,8.1,-,N/A,,Clear,60,2013-11-19 11:55:00
6:15 AM,30.9,26.2,83,30.33,10.0,East,5.8,-,N/A,,Clear,80,2013-11-19 12:15:00
6:35 AM,30.2,26.2,85,30.33,10.0,East,6.9,-,N/A,,Clear,80,2013-11-19 12:35:00
6:55 AM,30.0,26.1,85,30.33,10.0,ENE,8.1,-,N/A,,Clear,70,2013-11-19 12:55:00
7:15 AM,30.2,26.1,85,30.33,10.0,East,6.9,-,N/A,,Clear,80,2013-11-19 13:15:00
7:35 AM,30.6,26.2,84,30.33,10.0,ENE,6.9,-,N/A,,Clear,70,2013-11-19 13:35:00
7:55 AM,30.9,26.4,83,30.33,10.0,ENE,5.8,-,N/A,,Clear,70,2013-11-19 13:55:00
8:15 AM,31.6,26.4,81,30.34,10.0,Calm,Calm,-,N/A,,Clear,0,2013-11-19 14:15:00
8:35 AM,32.0,26.6,80,30.35,10.0,East,3.5,-,N/A,,Clear,80,2013-11-19 14:35:00
8:55 AM,32.4,27.0,80,30.35,10.0,Calm,Calm,-,N/A,,Clear,0,2013-11-19 14:55:00
9:15 AM,33.8,27.3,77,30.35,10.0,ESE,4.6,-,N/A,,Clear,110,2013-11-19 15:15:00
9:35 AM,34.7,27.9,76,30.36,10.0,SSE,3.5,-,N/A,,Clear,150,2013-11-19 15:35:00
9:55 AM,36.7,28.2,71,30.36,10.0,East,3.5,-,N/A,,Clear,100,2013-11-19 15:55:00
10:15 AM,37.4,27.3,67,30.35,10.0,East,5.8,-,N/A,,Clear,100,2013-11-19 16:15:00
10:35 AM,38.3,27.5,65,30.34,10.0,East,6.9,-,N/A,,Clear,100,2013-11-19 16:35:00
10:55 AM,39.6,27.0,61,30.33,10.0,Calm,Calm,-,N/A,,Clear,0,2013-11-19 16:55:00
11:15 AM,41.0,27.9,60,30.33,10.0,Calm,Calm,-,N/A,,Clear,0,2013-11-19 17:15:00
11:35 AM,41.2,25.9,55,30.32,10.0,Calm,Calm,-,N/A,,Clear,0,2013-11-19 17:35:00
11:55 AM,41.5,25.3,53,30.31,10.0,Calm,Calm,-,N/A,,Clear,0,2013-11-19 17:55:00
12:15 PM,42.6,26.6,53,30.31,10.0,Calm,Calm,-,N/A,,Clear,0,2013-11-19 18:15:00
12:35 PM,43.5,25.7,50,30.30,10.0,Calm,Calm,-,N/A,,Clear,0,2013-11-19 18:35:00
12:55 PM,44.1,27.1,51,30.30,10.0,Calm,Calm,-,N/A,,Clear,0,2013-11-19 18:55:00
1:15 PM,43.7,26.1,50,30.29,7.0,Calm,Calm,-,N/A,,Clear,0,2013-11-19 19:15:00
1:35 PM,43.9,25.3,48,30.28,10.0,Calm,Calm,-,N/A,,Clear,0,2013-11-19 19:35:00
1:55 PM,43.9,24.4,46,30.27,10.0,Calm,Calm,-,N/A,,Clear,0,2013-11-19 19:55:00
2:15 PM,44.1,26.1,49,30.27,10.0,Calm,Calm,-,N/A,,Clear,0,2013-11-19 20:15:00
2:35 PM,44.6,25.3,47,30.27,10.0,Calm,Calm,-,N/A,,Clear,0,2013-11-19 20:35:00
2:55 PM,44.2,25.5,48,30.26,10.0,Calm,Calm,-,N/A,,Clear,0,2013-11-19 20:55:00
3:15 PM,44.2,26.2,49,30.26,10.0,Calm,Calm,-,N/A,,Clear,0,2013-11-19 21:15:00
3:35 PM,43.7,27.7,53,30.26,10.0,Calm,Calm,-,N/A,,Clear,0,2013-11-19 21:35:00
3:55 PM,43.2,26.8,52,30.26,10.0,Calm,Calm,-,N/A,,Clear,0,2013-11-19 21:55:00
4:15 PM,41.4,27.5,58,30.26,10.0,Calm,Calm,-,N/A,,Clear,0,2013-11-19 22:15:00
4:35 PM,40.8,26.6,57,30.26,10.0,Calm,Calm,-,N/A,,Clear,0,2013-11-19 22:35:00
4:55 PM,38.7,25.9,60,30.26,10.0,Calm,Calm,-,N/A,,Clear,0,2013-11-19 22:55:00
5:15 PM,38.8,24.8,57,30.26,10.0,Calm,Calm,-,N/A,,Clear,0,2013-11-19 23:15:00
5:35 PM,36.9,25.5,64,30.27,10.0,Calm,Calm,-,N/A,,Clear,0,2013-11-19 23:35:00
5:55 PM,36.0,27.1,70,30.27,10.0,Calm,Calm,-,N/A,,Clear,0,2013-11-19 23:55:00
6:15 PM,35.8,27.1,71,30.26,10.0,Calm,Calm,-,N/A,,Clear,0,2013-11-20 00:15:00
6:35 PM,35.6,27.1,71,30.26,10.0,Calm,Calm,-,N/A,,Clear,0,2013-11-20 00:35:00
6:55 PM,36.0,27.3,71,30.25,10.0,Calm,Calm,-,N/A,,Clear,0,2013-11-20 00:55:00
7:15 PM,35.6,27.1,71,30.25,10.0,Calm,Calm,-,N/A,,Clear,0,2013-11-20 01:15:00
7:35 PM,34.7,27.1,74,30.25,10.0,Calm,Calm,-,N/A,,Clear,0,2013-11-20 01:35:00
7:55 PM,34.7,27.7,76,30.24,10.0,Calm,Calm,-,N/A,,Clear,0,2013-11-20 01:55:00
8:15 PM,34.9,27.9,76,30.24,10.0,ESE,10.4,-,N/A,,Clear,120,2013-11-20 02:15:00
8:35 PM,35.1,27.9,75,30.24,10.0,ESE,9.2,-,N/A,,Clear,110,2013-11-20 02:35:00
8:55 PM,34.9,27.9,76,30.24,10.0,East,10.4,-,N/A,,Clear,100,2013-11-20 02:55:00
9:15 PM,34.7,27.5,75,30.23,10.0,ESE,10.4,-,N/A,,Clear,110,2013-11-20 03:15:00
9:35 PM,34.7,27.7,76,30.24,10.0,ESE,10.4,-,N/A,,Clear,110,2013-11-20 03:35:00
9:55 PM,34.2,27.7,77,30.24,10.0,ESE,10.4,-,N/A,,Clear,110,2013-11-20 03:55:00
10:15 PM,34.7,28.0,77,30.23,10.0,ESE,10.4,-,N/A,,Clear,110,2013-11-20 04:15:00
10:35 PM,34.7,28.0,77,30.23,10.0,ESE,10.4,-,N/A,,Clear,120,2013-11-20 04:35:00
10:55 PM,34.2,27.7,77,30.23,10.0,ESE,8.1,-,N/A,,Clear,110,2013-11-20 04:55:00
11:15 PM,33.6,27.5,78,30.23,10.0,ESE,8.1,-,N/A,,Clear,120,2013-11-20 05:15:00
11:35 PM,32.7,27.1,80,30.23,10.0,SE,6.9,-,N/A,,Clear,130,2013-11-20 05:35:00
11:55 PM,32.9,27.3,80,30.22,10.0,SE,8.1,-,N/A,,Clear,130,2013-11-20 05:55:00